Other Public Products
Issued by NWS Grand Forks, ND

Home | Current Version | Previous Version | Graphics & Text | Print | Product List | Glossary On
Versions: 1 2 3 4 5 6 7 8 9 10 11 12 13 14 15 16 17 18 19 20 21 22 23 24 25 26 27 28 29 30 31 32 33 34 35 36 37 38 39 40 41 42 43 44 45 46 47 48 49 50
252
FPUS83 KFGF 241310
OPUFGF
PRAIRIE TO PINES WEATHER ROUNDUP
NATIONAL WEATHER SERVICE EASTERN NORTH DAKOTA/GRAND FORKS ND
800 AM CDT SUN JUL 24 2016

 **SATELLITE DATA USED TO AUGMENT SKY COVER AT AUTOMATED STATIONS**
 *****  WEATHER ACROSS EASTERN NORTH DAKOTA  *****

CITY           SKY/WX    TMP DP  RH WIND       PRES   REMARKS
GRAND FORKS    MOSUNNY   67  60  78 W9        29.84R
GRAND FORKS AF SUNNY     67  60  77 W10       29.85R
GRAND CITY NWS   N/A     64 N/A N/A NW7         N/A
BUXTON           N/A     65  65  97 W13         N/A
DEVILS LAKE    SUNNY     65  59  81 W17       29.90R
FARGO          SUNNY     67  61  81 W10       29.88R
WAHPETON ARPT  SUNNY     64  59  82 W14       29.90R
$$

 *****  WEATHER ACROSS CENTRAL AND WESTERN NORTH DAKOTA  *****

CITY           SKY/WX    TMP DP  RH WIND       PRES   REMARKS
JAMESTOWN      SUNNY     66  60  81 W12       29.94R
BISMARCK       MOSUNNY   64  56  75 W8        30.01R
MINOT          SUNNY     67  56  67 W12       29.97R
MINOT AFB      SUNNY     63  57  80 W13       29.95R
GARRISON         N/A     62  58  86 W9        30.00R
WILLISTON      SUNNY     60  53  77 SW7       30.03R
DICKINSON      SUNNY     59  53  80 W7        30.05S
HETTINGER      CLOUDY    56  51  84 W5        30.08S
$$

 *****  OTHER OBSERVATIONS NORTHEAST NORTH DAKOTA  *****

CITY           SKY/WX    TMP DP  RH WIND       PRES   REMARKS
WALHALLA       NOT AVBL
LANGDON        FAIR      63  61  94 W14       29.87R
CAVALIER       FAIR      66  59  77 W12       29.81R
GRAFTON        FAIR      66  61  82 W12       29.84R
CANDO          NOT AVBL
FORT TOTTEN      N/A     64  60  86 W7        29.95S
ROLLA            N/A     64  57  77 NW10G17   29.90R
RUGBY          NOT AVBL
 ***** THE ABOVE OBSERVATIONS ARE NON NWS ARE NOT QUALITY
        CONTROLLED AND MAY MIS-REPORT RAIN FOR SNOW...
$$

 *****  OTHER OBSERVATIONS SOUTHEAST NORTH DAKOTA *****

CITY           SKY/WX    TMP DP  RH WIND       PRES   REMARKS
COOPERSTOWN    NOT AVBL
VALLEY CITY    FAIR      66  64  94 W13       29.94R
OAKES            N/A    N/A N/A N/A MISG        N/A
GWINNER        FAIR      66  61  82 W13G18    29.94R
SHEYENNE NWR     N/A     67  60  78 NW10      29.95S
BUFFALO          N/A     65  60  83 NW9         N/A
WYNDMERE       NOT AVBL
 ***** THE ABOVE OBSERVATIONS ARE NON NWS ARE NOT QUALITY
       CONTROLLED AND MAY MIS-REPORT RAIN FOR SNOW...
$$

  *****  WEATHER ACROSS NORTHERN MINNESOTA  *****

CITY           SKY/WX    TMP DP  RH WIND       PRES   REMARKS
FLAG ISLAND    CLOUDY    63  61  94 W15G23    29.72R
WARROAD        NOT AVBL
ROSEAU         MOSUNNY   64  59  82 W9G16     29.78R
HALLOCK        SUNNY     64  61  88 W9        29.79S
THF RVR FALLS  SUNNY     64  60  87 W13       29.83R
HALSTAD        NOT AVBL
FOSSTON        SUNNY     64  57  77 W10       29.85R
BAUDETTE       CLOUDY    63  60  90 W10       29.75R
WASKISH        MOSUNNY   66  61  82 W14G21    29.78R
CROOKSTON      SUNNY     64  61  88 NW9       29.85R
$$
  *****  WEATHER ACROSS CENTRAL AND WEST MINNESOTA  *****

CITY           SKY/WX    TMP DP  RH WIND       PRES   REMARKS
BEMIDJI        PTSUNNY   64  59  82 W13       29.82R
PARK RAPIDS    PTSUNNY   66  61  84 NW14G20   29.84R
WADENA         SUNNY     64  61  88 W9        29.86R
DETROIT LAKES  SUNNY     64  61  88 NW14G20   29.88R
MOORHEAD       SUNNY     66  61  82 W13       29.89R
FERGUS FALLS   SUNNY     64  63  94 NW9       29.90R
ELBOW LAKE     FAIR      64  61  91 W10       29.92R
MORRIS MN      SUNNY     66  63  88 NW12      29.90R
STAPLES        SUNNY     64  63  94 W10       29.85R
WHEATON        NOT AVBL
$$
  *****  WEATHER ELSEWHERE ACROSS MINNESOTA  *****

CITY           SKY/WX    TMP DP  RH WIND       PRES   REMARKS
DULUTH         CLOUDY    68  67  96 W9        29.78R
INTRNTL FALLS  PTSUNNY   67  62  84 W12       29.72R
ELY            CLOUDY    68  66  94 W6        29.74R
CLOQUET        CLOUDY    66  64  94 W9        29.78R
BRAINERD       SUNNY     69  64  84 W8        29.83R
HIBBING        MOSUNNY   67  66  97 W6        29.76S
ALEXANDRIA     SUNNY     67  61  81 NW13      29.90R
SAINT CLOUD    SUNNY     72  68  87 W12       29.85R
MINNEAPOLIS    MOSUNNY   76  70  82 NW8       29.83R
$$

  *****  WEATHER ACROSS SOUTH DAKOTA  *****

CITY           SKY/WX    TMP DP  RH WIND       PRES   REMARKS
SIOUX FALLS    CLOUDY    70  66  87 NW10      29.95R
BROOKINGS      MOSUNNY   67  63  87 N7        29.94S
WATERTOWN      SUNNY     67  60  78 N10       29.96R
HURON          MOSUNNY   65  60  84 NW8       29.99R
SISSETON         N/A     70  60  70 NW14      29.91R
ABERDEEN       MOSUNNY   68  58  70 NW14      29.96R
MITCHELL       CLOUDY    66  61  84 NW5       30.00R
PIERRE         LGT RAIN  65  60  84 NW9       30.04F
MOBRIDGE       MOSUNNY   66  58  75 W6        30.02R
RAPID CITY     CLOUDY    62  56  80 CALM      30.13R
$$

  *****  SOME WEATHER IN NEARBY STATES *****

CITY           SKY/WX    TMP DP  RH WIND       PRES   REMARKS
GLASGOW MT     SUNNY     58  54  86 CALM      30.04R
GREAT FALLS MT CLEAR     55  41  59 S8        30.13R
CHEYENNE WY    CLOUDY    66  48  52 SE9       30.19R
SCOTTSBLUFF NE MOSUNNY   67  57  70 NW10      30.12R
OMAHA NE       MOSUNNY   79  73  82 N6        29.90R
DES MOINES IA  MOSUNNY   81  75  82 SW8       29.86R
DAVENPORT IA   SUNNY     82  76  81 S13       29.86S
CHICAGO IL     PTSUNNY   75  71  87 S15       29.92R
EAU CLAIRE WI  CLOUDY    72  70  93 CALM      29.79R
LA CROSSE WI   PTSUNNY   79  75  87 SW5       29.78S
$$

  *****  SOME NATIONAL WEATHER *****

CITY           SKY/WX    TMP DP  RH WIND       PRES   REMARKS
LA GUARDIA NY  MOSUNNY   80  61  52 N6        29.98S
RALEIGH NC     PTSUNNY   82  75  79 SW5       30.03R
ATLANTA GA     MOSUNNY   81  71  71 S3        30.08R
NEW ORLEANS LA PTSUNNY   85  77  77 W5        29.98R HX  95
OKLAHOMA CITY  MOSUNNY   78  72  81 S5        29.97R
ALBUQUERQUE NM CLOUDY    77  51  40 W9        30.14R
SALT LAKE CITY PTCLDY    65  43  44 E3        30.08R
LOS ANGELES CA PTCLDY    68  64  87 E3        29.85R
BOISE ID       CLEAR     58  40  51 CALM      30.07R
SEATTLE WA     CLEAR     58  54  86 NE9       30.15S
$$

*** WEATHER ACROSS MANITOBA...SASKATCHEWAN AND ONTARIO ***
                ***ONTARIO***

CITY           SKY/WX    TMP DP  RH WIND       PRES   REMARKS
GERALDTON      LGT RAIN  68  63  83 S7        29.77S
THUNDER BAY    CLOUDY    66  64  94 SE3       29.70F
SIOUX LOOKOUT  CLOUDY    66  64  94 SW6       29.64S
TORONTO        PTSUNNY   75  61  60 E12       30.01F
BIG TROUT LK   LGT RAIN  63  59  88 SE9       29.58F
PICKLE LAKE    PTSUNNY   66  61  82 S5        29.62S
DRYDEN         CLOUDY    68  64  88 SW10      29.66S
KENORA         PTSUNNY   66  61  82 NW8       29.70R
$$
                *** MANITOBA***

CITY           SKY/WX    TMP DP  RH WIND       PRES   REMARKS
BRANDON        SUNNY     61  59  94 W13G18    29.85R
DAUPHIN        SUNNY     63  59  88 W13G22    29.79R
ISLAND LAKE    LGT RAIN  63  61  94 N7        29.55F
PILOT MOUND      N/A     63  57  82 W9          N/A
THE PAS        PTSUNNY   63  59  88 NW9       29.77R
THOMPSON       LGT RAIN  61  59  94 N5        29.72S
WINNIPEG       MOSUNNY   63  61  94 W13       29.75R
LYNN LAKE      SUNNY     59  55  88 MISG      29.80R
CHURCHILL      PTSUNNY   54  52  94 NE10      29.79R
GILLAM         CLOUDY    61  61 100 NE13      29.70R
$$
                ***SASKATCHEWAN***

CITY           SKY/WX    TMP DP  RH WIND       PRES   REMARKS
ESTEVAN        MOSUNNY   59  55  88 W9        29.99R
KINDERSLEY     MOSUNNY   59  55  88 SW2       30.00S
LLOYDMINSTER   MOSUNNY   57  52  82 W8        29.96S
PRINCE ALBERT  PTSUNNY   61  55  82 W8        29.89R
REGINA         MOSUNNY   59  54  82 W10G17    29.97S
YORKTON        SUNNY     61  57  88 W10       29.88R   C1F1C2F2C3F3C4F4C5F5C6F6C7F7C8F8C9F9CaFaCbFbCcFcCdFdCe!



USA.gov is the U.S. government's official web portal to all federal, state and local government web resources and services.